User: anonymous   Login
Location: Unspecified
(0.0000°N, 0.0000°E)
Time: 21:28:48
(UTC+00:00)
Language:

Kosmos-2180 - Orbit

View from above orbital plane
View from above orbital plane
View from above satellite
View from above satellite

Ground track
Ground track

The orbit data is extracted from the following two-line orbital elements,

1 21875U 92008A   18048.82153074  .00000018  00000-0  31109-5 0  9991
2 21875  82.9287 314.9278 0038049 153.4821 269.0500 13.73727323303470
Epoch (UTC): 17 February 2018 19:43:00
Eccentricity: 0.0038049
inclination: 82.9287°
perigee height: 958 km
apogee height: 1014 km
right ascension of ascending node: 314.9278°
argument of perigee: 153.4821°
revolutions per day: 13.73727323
mean anomaly at epoch: 269.0500°
orbit number at epoch: 30347

The dashed part of the orbit path shows where the satellite is in the earth's shadow,  

DLR